TimeCST,TemperatureF,Dew PointF,Humidity,Sea Level PressureIn,VisibilityMPH,Wind Direction,Wind SpeedMPH,Gust SpeedMPH,PrecipitationIn,Events,Conditions,WindDirDegrees,DateUTC
12:53 AM,46.9,33.1,59,30.10,10.0,NNW,5.8,-,N/A,,Clear,340,2013-02-19 06:53:00
1:53 AM,46.9,30.9,54,30.12,10.0,North,10.4,17.3,N/A,,Clear,10,2013-02-19 07:53:00
2:53 AM,45.0,28.0,52,30.14,10.0,North,10.4,17.3,N/A,,Clear,350,2013-02-19 08:53:00
3:53 AM,42.1,27.0,55,30.14,10.0,NNW,6.9,-,N/A,,Clear,340,2013-02-19 09:53:00
4:53 AM,39.0,27.0,62,30.17,10.0,NNW,4.6,-,N/A,,Clear,330,2013-02-19 10:53:00
5:53 AM,37.9,26.1,62,30.21,10.0,NNW,4.6,-,N/A,,Clear,330,2013-02-19 11:53:00
6:53 AM,36.0,26.1,67,30.23,10.0,North,3.5,-,N/A,,Clear,10,2013-02-19 12:53:00
7:53 AM,39.9,26.1,58,30.26,10.0,Calm,Calm,-,N/A,,Clear,0,2013-02-19 13:53:00
8:19 AM,39.2,26.6,61,30.28,10.0,Calm,Calm,-,N/A,,Partly Cloudy,0,2013-02-19 14:19:00
8:53 AM,42.1,28.0,58,30.30,10.0,ENE,4.6,-,N/A,,Clear,70,2013-02-19 14:53:00
9:53 AM,45.0,24.1,44,30.32,10.0,ENE,3.5,-,N/A,,Clear,70,2013-02-19 15:53:00
10:53 AM,48.0,21.9,36,30.33,10.0,NE,5.8,-,N/A,,Clear,50,2013-02-19 16:53:00
12:53 PM,53.1,26.1,35,30.31,10.0,NNE,4.6,-,N/A,,Clear,30,2013-02-19 18:53:00
1:53 PM,57.0,23.0,27,30.28,10.0,North,5.8,-,0.05,,Clear,350,2013-02-19 19:53:00
2:53 PM,55.9,24.1,29,30.25,10.0,Calm,Calm,-,N/A,,Clear,0,2013-02-19 20:53:00
3:53 PM,57.0,21.9,26,30.24,10.0,East,3.5,-,N/A,,Clear,100,2013-02-19 21:53:00
4:53 PM,57.9,21.9,25,30.23,7.0,Calm,Calm,-,N/A,,Clear,0,2013-02-19 22:53:00
6:53 PM,46.0,26.1,46,30.24,10.0,Calm,Calm,-,N/A,,Clear,0,2013-02-20 00:53:00
7:53 PM,48.0,24.1,39,30.24,10.0,ENE,6.9,-,N/A,,Clear,60,2013-02-20 01:53:00
8:53 PM,46.0,25.0,44,30.25,10.0,East,3.5,-,N/A,,Clear,80,2013-02-20 02:53:00
9:53 PM,46.0,25.0,44,30.26,10.0,ENE,3.5,-,N/A,,Clear,70,2013-02-20 03:53:00
10:53 PM,45.0,25.0,46,30.25,10.0,ENE,4.6,-,N/A,,Clear,70,2013-02-20 04:53:00
11:53 PM,45.0,25.0,46,30.25,10.0,East,4.6,-,N/A,,Clear,80,2013-02-20 05:53:00